User: anonymous   Login
Location: Unspecified
(0.0000°N, 0.0000°E)
Time: 00:24:49
(UTC+00:00)
Language:

BIROS - Orbit

View from above orbital plane
View from above orbital plane
View from above satellite
View from above satellite

Ground track
Ground track

The orbit data is extracted from the following two-line orbital elements,

1 41604U 16040F   17231.15756715 +.00000645 +00000-0 +32291-4 0  9993
2 41604 097.4568 292.9136 0012056 200.6354 159.4396 15.20907257064254
Epoch (UTC): 19 August 2017 03:46:53
Eccentricity: 0.0012056
inclination: 97.4568°
perigee height: 495 km
apogee height: 511 km
right ascension of ascending node: 292.9136°
argument of perigee: 200.6354°
revolutions per day: 15.20907257
mean anomaly at epoch: 159.4396°
orbit number at epoch: 6425

The dashed part of the orbit path shows where the satellite is in the earth's shadow,  

DLR